Location: Unspecified
(0.0000°N, 0.0000°E)
Time: 03:35:03
(UTC+00:00)

N. Korean satellite - Pass Details

Date: 13 October 2017
Orbit: 461 x 513 km, 97.2° (Epoch: 15 December)

Event Time Altitude Azimuth Distance (km) Brightness Sun altitude
Rises 18:53:53 0° 186° (S) 2,610 10.5 -16.8°
Reaches altitude 10° 18:56:09 10° 197° (SSW) 1,715 9.7 -17.3°
Maximum altitude 18:59:24 29° 259° (WSW) 928 8.7 -18.1°
Drops below altitude 10° 19:02:36 10° 321° (NW) 1,683 9.7 -18.9°
Sets 19:04:50 0° 332° (NNW) 2,551 10.5 -19.5°
